DW6650 Weather Reports


Display with metric or nautical units.
time (UTC)temp
F
wind
direction
speed
MPH
gust
MPH
rain 1hr
in
rain 24hr
in
rain mn
in
humidity
%
barometer
mb
20260509121017 63 221 0.0 0.0 0.00 0.00 0.00 95 1013.7
20260509120517 63 225 0.0 1.0 0.00 0.00 0.00 95 1013.7
20260509120017 63 225 0.0 1.0 0.00 0.00 0.00 96 1013.7
20260509115517 62 225 0.0 2.0 0.00 0.00 0.00 96 1013.6
20260509115017 62 316 0.0 0.0 0.00 0.00 0.00 96 1013.6
20260509114517 62 316 0.0 0.0 0.00 0.00 0.00 96 1013.6
20260509114037 62 316 0.0 0.0 0.00 0.00 0.00 96 1013.6
20260509113517 62 316 0.0 0.0 0.00 0.00 0.00 96 1013.4
20260509113017 61 316 0.0 0.0 0.00 0.00 0.00 96 1013.5
20260509112537 61 318 0.0 0.0 0.00 0.00 0.00 96 1013.6
20260509112038 61 318 0.0 0.0 0.00 0.00 0.00 96 1013.7
20260509111538 61 318 0.0 0.0 0.00 0.00 0.00 96 1013.8
20260509111038 61 318 0.0 0.0 0.00 0.00 0.00 96 1013.6
20260509110517 61 318 0.0 0.0 0.00 0.00 0.00 96 1013.8
20260509110017 61 318 0.0 0.0 0.00 0.00 0.00 96 1013.7
20260509105517 61 315 0.0 1.0 0.00 0.00 0.00 96 1013.5
20260509105017 61 315 0.0 1.0 0.00 0.00 0.00 96 1013.6
20260509104517 61 59 0.0 0.0 0.00 0.00 0.00 96 1013.6
20260509104037 61 59 0.0 0.0 0.00 0.00 0.00 96 1013.6
20260509103537 61 59 0.0 0.0 0.00 0.00 0.00 96 1013.5
20260509103017 61 59 0.0 0.0 0.00 0.00 0.00 96 1013.5
20260509102537 61 59 0.0 0.0 0.00 0.00 0.00 96 1013.5
20260509102017 61 59 0.0 0.0 0.00 0.00 0.00 96 1013.5
20260509101518 61 59 0.0 0.0 0.00 0.00 0.00 96 1013.4
20260509101017 61 59 0.0 0.0 0.00 0.00 0.00 96 1013.4
20260509100517 61 59 0.0 0.0 0.00 0.00 0.00 96 1013.2
20260509100037 61 59 0.0 0.0 0.00 0.00 0.00 96 1013.2
20260509095537 60 59 0.0 0.0 0.00 0.00 0.00 96 1013.2
20260509095017 60 59 0.0 0.0 0.00 0.00 0.00 96 1013.2
20260509094517 60 59 0.0 0.0 0.00 0.00 0.00 96 1013.1
20260509094017 60 59 0.0 0.0 0.00 0.00 0.00 96 1013.1
20260509093537 60 59 0.0 0.0 0.00 0.00 0.00 96 1013.0
20260509093037 60 59 0.0 0.0 0.00 0.00 0.00 96 1012.8
20260509092517 60 59 0.0 0.0 0.00 0.00 0.00 96 1012.8
20260509092017 60 59 0.0 0.0 0.00 0.00 0.00 95 1012.7
20260509091557 60 59 0.0 0.0 0.00 0.00 0.00 96 1012.7
20260509091017 60 59 0.0 0.0 0.00 0.00 0.00 96 1012.7
20260509090517 60 59 0.0 0.0 0.00 0.00 0.00 96 1012.7
20260509090017 60 59 0.0 0.0 0.00 0.00 0.00 96 1012.6
20260509085517 60 59 0.0 0.0 0.00 0.00 0.00 96 1012.7
20260509085017 60 59 0.0 0.0 0.00 0.00 0.00 96 1012.8
20260509084517 60 68 0.0 1.0 0.00 0.00 0.00 96 1012.8
20260509084017 59 59 0.0 0.0 0.00 0.00 0.00 95 1012.8
20260509083517 59 59 0.0 0.0 0.00 0.00 0.00 95 1012.7
20260509083037 59 59 0.0 0.0 0.00 0.00 0.00 95 1012.6
20260509082517 59 59 0.0 0.0 0.00 0.00 0.00 95 1012.5
20260509082037 59 59 0.0 0.0 0.00 0.00 0.00 95 1012.5
20260509081517 60 59 0.0 0.0 0.00 0.00 0.00 95 1012.5
20260509081017 60 59 0.0 0.0 0.00 0.00 0.00 95 1012.6
20260509080537 60 59 0.0 0.0 0.00 0.00 0.00 94 1012.7
20260509080037 60 59 0.0 0.0 0.00 0.00 0.00 94 1012.7
20260509075517 60 59 0.0 0.0 0.00 0.00 0.00 94 1012.7
20260509075037 60 59 0.0 0.0 0.00 0.00 0.00 94 1012.7
20260509074537 60 59 0.0 0.0 0.00 0.00 0.00 94 1012.7
20260509074017 60 59 0.0 0.0 0.00 0.00 0.00 94 1012.8
20260509073517 60 59 0.0 0.0 0.00 0.00 0.00 94 1012.6
20260509073037 61 59 0.0 0.0 0.00 0.00 0.00 94 1012.5
20260509072537 61 59 0.0 0.0 0.00 0.00 0.00 93 1012.7
20260509072037 61 59 0.0 0.0 0.00 0.00 0.00 93 1012.9
20260509071517 61 59 0.0 0.0 0.00 0.00 0.00 93 1012.8
20260509071017 61 59 0.0 0.0 0.00 0.00 0.00 93 1012.9
20260509070517 61 59 0.0 0.0 0.00 0.00 0.00 93 1013.2
20260509070037 61 59 0.0 0.0 0.00 0.00 0.00 93 1013.3
20260509065518 62 59 0.0 0.0 0.00 0.00 0.00 93 1013.0
20260509065017 62 59 0.0 0.0 0.00 0.00 0.00 93 1013.2
20260509064516 62 59 0.0 0.0 0.00 0.00 0.00 93 1013.2
20260509064017 62 59 0.0 0.0 0.00 0.00 0.00 93 1013.3
20260509063536 62 45 0.0 1.0 0.00 0.00 0.00 93 1013.2
20260509063016 62 76 0.0 0.0 0.00 0.00 0.00 93 1013.3
20260509062516 62 76 0.0 0.0 0.00 0.00 0.00 93 1013.3
20260509062017 62 68 0.0 1.0 0.00 0.00 0.00 93 1013.3
20260509061516 62 69 0.0 0.0 0.00 0.00 0.00 94 1013.2
20260509061057 61 69 0.0 0.0 0.00 0.00 0.00 93 1013.5
20260509060537 61 68 0.0 1.0 0.00 0.00 0.00 93 1013.6
20260509060017 61 69 0.0 0.0 0.00 0.00 0.00 93 1013.8
20260509055517 61 68 0.0 2.0 0.00 0.00 0.00 93 1013.8
20260509055016 61 88 0.0 0.0 0.00 0.00 0.00 93 1014.1
20260509054516 61 88 0.0 0.0 0.00 0.00 0.00 93 1014.1
20260509054016 61 88 0.0 0.0 0.00 0.00 0.00 93 1013.9
20260509053537 61 88 0.0 0.0 0.00 0.00 0.00 92 1013.9
20260509053057 61 88 0.0 0.0 0.00 0.00 0.00 92 1014.0
20260509052516 61 88 0.0 0.0 0.00 0.00 0.00 92 1014.1
20260509052017 62 68 0.0 1.0 0.00 0.00 0.00 92 1014.1
20260509051516 62 135 0.0 1.0 0.00 0.00 0.00 92 1014.5
20260509051016 62 138 0.0 0.0 0.00 0.00 0.00 92 1014.6
20260509050516 62 138 0.0 0.0 0.00 0.00 0.00 92 1014.8
20260509050016 62 138 0.0 0.0 0.00 0.00 0.00 92 1014.9
20260509045516 62 138 0.0 0.0 0.00 0.00 0.00 92 1014.9
20260509045016 62 138 0.0 0.0 0.00 0.00 0.00 92 1014.9
20260509044516 62 138 0.0 0.0 0.00 0.00 0.00 92 1014.8
20260509044036 62 138 0.0 0.0 0.00 0.00 0.00 92 1014.7
20260509043516 62 138 0.0 0.0 0.00 0.00 0.00 92 1014.5
20260509043016 62 138 0.0 0.0 0.00 0.00 0.00 92 1014.4
20260509042556 62 135 0.0 1.0 0.00 0.00 0.00 92 1014.2
20260509042017 62 158 0.0 1.0 0.00 0.00 0.00 91 1014.5
20260509041516 62 158 0.0 1.0 0.00 0.00 0.00 91 1014.3
20260509041016 62 158 0.0 1.0 0.00 0.00 0.00 91 1014.2
20260509040516 62 168 0.0 0.0 0.00 0.00 0.00 91 1014.7
20260509040017 62 168 0.0 0.0 0.00 0.00 0.00 91 1014.6
20260509035517 62 168 0.0 0.0 0.00 0.00 0.00 91 1014.8
20260509035016 62 168 0.0 0.0 0.00 0.00 0.00 91 1014.7
20260509034537 62 168 0.0 0.0 0.00 0.00 0.00 91 1014.3
20260509034037 62 270 0.0 1.0 0.00 0.00 0.00 91 1014.2
20260509033537 62 273 0.0 0.0 0.00 0.00 0.00 91 1014.6
20260509033016 62 273 0.0 0.0 0.00 0.00 0.00 91 1014.8
20260509032537 62 273 0.0 0.0 0.00 0.00 0.00 90 1014.7
20260509032017 63 273 0.0 0.0 0.00 0.00 0.00 90 1014.8
20260509031536 63 273 0.0 0.0 0.00 0.00 0.00 90 1015.0
20260509031037 63 273 0.0 0.0 0.00 0.00 0.00 90 1015.5
20260509030539 63 273 0.0 0.0 0.00 0.00 0.00 90 1015.5
20260509030016 63 273 0.0 0.0 0.00 0.00 0.00 89 1015.1
20260509025516 63 273 0.0 0.0 0.00 0.00 0.00 89 1015.0
20260509025016 63 273 0.0 0.0 0.00 0.00 0.00 88 1015.2
20260509024516 63 273 0.0 0.0 0.00 0.00 0.00 88 1015.4
20260509024017 63 273 0.0 0.0 0.00 0.00 0.00 88 1015.5
20260509023516 63 273 0.0 0.0 0.00 0.00 0.00 88 1015.5
20260509023016 63 273 0.0 0.0 0.00 0.00 0.00 88 1015.4
20260509022518 63 273 0.0 0.0 0.00 0.00 0.00 88 1015.2
20260509022016 63 273 0.0 0.0 0.00 0.00 0.00 89 1015.0
20260509021516 64 273 0.0 0.0 0.00 0.00 0.00 88 1014.7
20260509021037 64 273 0.0 0.0 0.00 0.00 0.00 88 1014.6
20260509020516 64 273 0.0 0.0 0.00 0.00 0.00 88 1014.6
20260509020016 64 273 0.0 0.0 0.00 0.00 0.00 88 1014.5
20260509015516 64 273 0.0 0.0 0.00 0.00 0.00 88 1014.7
20260509015017 64 273 0.0 0.0 0.00 0.00 0.00 87 1014.6
20260509014536 64 273 0.0 0.0 0.00 0.00 0.00 87 1014.6
20260509014016 64 273 0.0 0.0 0.00 0.00 0.00 86 1014.7
20260509013518 64 273 0.0 0.0 0.00 0.00 0.00 86 1014.9
20260509013016 64 273 0.0 0.0 0.00 0.00 0.00 87 1015.1
20260509012556 64 273 0.0 0.0 0.00 0.00 0.00 85 1015.1
20260509012016 64 273 0.0 0.0 0.00 0.00 0.00 86 1015.1
20260509011516 64 273 0.0 0.0 0.00 0.00 0.00 84 1015.1
20260509011016 64 273 0.0 0.0 0.00 0.00 0.00 85 1015.2
20260509010516 65 273 0.0 0.0 0.00 0.00 0.00 85 1015.2
20260509010036 65 273 0.0 0.0 0.00 0.00 0.00 85 1015.6
20260509005516 65 273 0.0 0.0 0.00 0.00 0.00 84 1015.9
20260509005016 65 273 0.0 0.0 0.00 0.00 0.00 84 1015.7
20260509004516 65 273 0.0 0.0 0.00 0.00 0.00 83 1015.4
20260509004016 65 273 0.0 0.0 0.00 0.00 0.00 83 1015.2
20260509003536 65 273 0.0 0.0 0.00 0.00 0.00 83 1015.1
20260509003016 65 273 0.0 0.0 0.00 0.00 0.00 84 1015.2
20260509002516 66 273 0.0 0.0 0.00 0.00 0.00 82 1015.4
20260509002016 66 270 0.0 2.0 0.00 0.00 0.00 82 1015.5
20260509001516 66 77 0.0 0.0 0.00 0.00 0.00 84 1015.2
20260509001016 66 77 0.0 0.0 0.00 0.00 0.00 82 1014.9
20260509000516 66 77 0.0 0.0 0.00 0.00 0.00 83 1015.1
20260509000016 67 77 0.0 0.0 0.00 0.00 0.00 82 1015.1
20260508235516 67 77 0.0 0.0 0.00 0.00 0.00 81 1015.1
20260508235016 67 77 0.0 0.0 0.00 0.00 0.00 82 1015.0
20260508234516 67 77 0.0 0.0 0.00 0.00 0.00 83 1014.9
20260508234016 67 77 0.0 0.0 0.00 0.00 0.00 81 1014.8
20260508233516 67 77 0.0 0.0 0.00 0.00 0.00 81 1015.0
20260508233016 67 77 0.0 0.0 0.00 0.00 0.00 81 1015.0
20260508232516 67 77 0.0 0.0 0.00 0.00 0.00 81 1015.0
20260508232016 68 77 0.0 0.0 0.00 0.00 0.00 81 1014.9
20260508231516 68 77 0.0 0.0 0.00 0.00 0.00 80 1014.8
20260508231015 68 77 0.0 0.0 0.00 0.00 0.00 80 1014.6
20260508230556 68 77 0.0 0.0 0.00 0.00 0.00 78 1014.6
20260508230016 68 77 0.0 0.0 0.00 0.00 0.00 75 1014.6
20260508225515 68 77 0.0 0.0 0.00 0.00 0.00 74 1014.6
20260508225016 68 77 0.0 0.0 0.00 0.00 0.00 74 1014.4
20260508224515 69 77 0.0 0.0 0.00 0.00 0.00 76 1014.4
20260508224016 69 77 0.0 0.0 0.00 0.00 0.00 76 1014.5
20260508223515 69 77 0.0 0.0 0.00 0.00 0.00 75 1014.6
20260508223016 69 77 0.0 0.0 0.00 0.00 0.00 76 1014.4
20260508222516 69 77 0.0 0.0 0.00 0.00 0.00 76 1014.5
20260508222016 69 77 0.0 0.0 0.00 0.00 0.00 75 1014.4
20260508221515 69 77 0.0 0.0 0.00 0.00 0.00 73 1014.4
20260508221015 69 77 0.0 0.0 0.00 0.00 0.00 74 1014.5
20260508220516 69 90 1.0 2.0 0.00 0.00 0.00 72 1014.4
20260508220015 70 90 0.0 2.0 0.00 0.00 0.00 72 1014.6
20260508215516 70 91 0.0 0.0 0.00 0.00 0.00 74 1015.0
20260508215038 70 90 0.0 1.0 0.00 0.00 0.00 72 1015.0
20260508214517 70 90 0.0 1.0 0.00 0.00 0.00 71 1015.2
20260508214017 70 90 0.0 1.0 0.00 0.00 0.00 70 1015.1
20260508213518 70 91 0.0 0.0 0.00 0.00 0.00 71 1015.1
20260508213017 70 91 0.0 0.0 0.00 0.00 0.00 71 1015.2
20260508212517 70 91 0.0 0.0 0.00 0.00 0.00 69 1015.1
20260508212018 70 91 0.0 0.0 0.00 0.00 0.00 70 1015.1
20260508211517 70 90 0.0 1.0 0.00 0.00 0.00 70 1015.0
20260508211018 70 106 0.0 0.0 0.00 0.00 0.00 69 1014.9
20260508210519 70 113 0.0 1.0 0.00 0.00 0.00 71 1014.8
20260508210017 70 113 0.0 1.0 0.00 0.00 0.00 69 1014.9
20260508205537 70 106 0.0 0.0 0.00 0.00 0.00 69 1015.0
20260508205017 70 113 0.0 3.0 0.00 0.00 0.00 67 1015.0
20260508204517 70 113 0.0 2.0 0.00 0.00 0.00 67 1015.2
20260508204017 70 90 0.0 2.0 0.00 0.00 0.00 68 1015.1
20260508203517 71 109 0.0 0.0 0.00 0.00 0.00 67 1015.1
20260508203017 71 109 0.0 0.0 0.00 0.00 0.00 67 1015.2
20260508202558 71 109 0.0 0.0 0.00 0.00 0.00 66 1015.2
20260508202017 71 113 0.0 3.0 0.00 0.00 0.00 66 1015.2
20260508201517 71 77 0.0 0.0 0.00 0.00 0.00 65 1015.3
20260508201017 71 77 0.0 0.0 0.00 0.00 0.00 67 1015.4
20260508200538 72 77 0.0 0.0 0.00 0.00 0.00 65 1015.3
20260508200037 72 77 0.0 0.0 0.00 0.00 0.00 64 1015.3
20260508195517 72 77 0.0 0.0 0.00 0.00 0.00 66 1015.4
20260508195038 72 77 0.0 0.0 0.00 0.00 0.00 65 1015.5
20260508194538 72 68 0.0 2.0 0.00 0.00 0.00 62 1015.4
20260508194017 72 113 0.0 1.0 0.00 0.00 0.00 63 1015.3
20260508193537 72 68 0.0 1.0 0.00 0.00 0.00 66 1015.4
20260508193037 72 248 0.0 2.0 0.00 0.00 0.00 64 1015.5
20260508192517 72 338 0.0 2.0 0.00 0.00 0.00 67 1015.6
20260508192037 72 68 0.0 1.0 0.00 0.00 0.00 64 1015.4
20260508191517 72 180 0.0 1.0 0.00 0.00 0.00 66 1015.4
20260508191118 72 180 0.0 1.0 0.00 0.00 0.00 63 1015.6
20260508190537 72 113 0.0 2.0 0.00 0.00 0.00 65 1015.3
20260508190037 72 45 0.0 3.0 0.00 0.00 0.00 64 1015.5
20260508185517 72 90 1.0 3.0 0.00 0.00 0.00 62 1015.5
20260508185017 72 90 0.0 1.0 0.00 0.00 0.00 64 1015.8
20260508184537 72 68 0.0 1.0 0.00 0.00 0.00 63 1015.9
20260508184017 72 90 1.0 2.0 0.00 0.00 0.00 61 1016.1
20260508183517 72 68 0.0 1.0 0.00 0.00 0.00 62 1016.3
20260508183017 72 45 0.0 1.0 0.00 0.01 0.00 62 1016.6
20260508182517 72 68 0.0 2.0 0.00 0.01 0.00 61 1016.6
20260508182017 72 113 0.0 1.0 0.00 0.01 0.00 60 1016.5
20260508181517 72 113 1.0 3.0 0.00 0.01 0.00 62 1016.8
20260508181018 72 113 1.0 7.0 0.00 0.01 0.00 61 1016.5
20260508180537 72 203 0.0 2.0 0.00 0.01 0.00 62 1016.6
20260508180037 72 180 0.0 1.0 0.00 0.01 0.00 63 1016.7
20260508175517 72 113 0.0 2.0 0.00 0.01 0.00 61 1016.7
20260508175017 72 113 0.0 3.0 0.00 0.01 0.00 60 1016.5
20260508174517 72 113 0.0 4.0 0.00 0.01 0.00 63 1016.5
20260508174017 72 90 0.0 2.0 0.00 0.01 0.00 62 1016.7
20260508173539 72 68 0.0 2.0 0.00 0.01 0.00 64 1016.9
20260508173037 72 90 0.0 1.0 0.00 0.01 0.00 66 1016.8
20260508172516 72 90 0.0 2.0 0.00 0.01 0.00 65 1016.7
20260508172017 72 90 0.0 3.0 0.00 0.01 0.00 58 1016.8
20260508171517 72 90 1.0 5.0 0.00 0.01 0.00 60 1016.8
20260508171022 72 68 1.0 6.0 0.00 0.01 0.00 60 1016.8
20260508170517 72 315 1.0 4.0 0.00 0.01 0.00 63 1017.1
20260508170017 72 315 0.0 3.0 0.00 0.01 0.00 61 1017.1
20260508165517 72 113 1.0 4.0 0.00 0.01 0.00 61 1017.2
20260508165017 72 90 0.0 3.0 0.00 0.01 0.00 61 1017.1
20260508164517 72 90 1.0 3.0 0.00 0.01 0.00 58 1017.3
20260508164017 72 338 1.0 3.0 0.00 0.01 0.00 60 1017.5
20260508163517 72 45 0.0 2.0 0.00 0.01 0.00 62 1017.6
20260508163017 72 293 0.0 2.0 0.00 0.01 0.00 61 1017.5
20260508162517 72 135 1.0 4.0 0.00 0.01 0.00 61 1017.6
20260508162017 72 90 1.0 3.0 0.00 0.01 0.00 61 1017.7
20260508161517 71 90 0.0 2.0 0.00 0.01 0.00 65 1017.7
20260508161017 71 68 0.0 3.0 0.00 0.01 0.00 62 1017.9
20260508160517 71 315 1.0 2.0 0.00 0.01 0.00 63 1017.9
20260508160016 71 113 0.0 2.0 0.00 0.01 0.00 62 1018.0
20260508155516 71 90 1.0 6.0 0.00 0.01 0.00 61 1018.2
20260508155037 71 90 0.0 2.0 0.00 0.01 0.00 64 1018.4
20260508154516 71 113 1.0 3.0 0.00 0.01 0.00 63 1018.4
20260508154036 71 113 0.0 3.0 0.00 0.01 0.00 62 1018.4
20260508153617 71 90 1.0 4.0 0.00 0.01 0.00 61 1018.3
20260508153016 71 90 2.0 7.0 0.00 0.01 0.00 61 1018.2
20260508152537 71 90 0.0 2.0 0.00 0.01 0.00 63 1018.1
20260508152017 71 68 0.0 2.0 0.00 0.01 0.00 65 1018.0
20260508151516 71 90 1.0 5.0 0.00 0.01 0.00 62 1018.0
20260508151036 71 338 1.0 6.0 0.00 0.01 0.00 64 1018.0
20260508150516 71 23 1.0 5.0 0.00 0.01 0.00 64 1018.1
20260508150017 70 338 1.0 5.0 0.00 0.01 0.00 64 1018.0
20260508145516 70 90 1.0 5.0 0.00 0.01 0.00 66 1018.0
20260508145017 70 225 1.0 2.0 0.00 0.01 0.00 68 1018.0
20260508144516 70 45 1.0 3.0 0.00 0.01 0.00 71 1018.2
20260508144017 69 338 1.0 3.0 0.00 0.01 0.00 70 1018.3
20260508143536 69 90 1.0 4.0 0.00 0.01 0.00 70 1018.3
20260508143016 69 90 1.0 4.0 0.00 0.01 0.00 75 1018.5
20260508142516 68 203 1.0 3.0 0.00 0.01 0.00 76 1018.4
20260508142017 68 113 1.0 5.0 0.00 0.01 0.00 75 1018.5
20260508141516 67 113 1.0 2.0 0.00 0.01 0.00 75 1018.4
20260508141016 66 113 1.0 4.0 0.00 0.01 0.00 79 1018.6
20260508140516 66 158 0.0 2.0 0.00 0.01 0.00 80 1018.6
20260508140017 65 113 0.0 1.0 0.00 0.01 0.00 84 1018.6
20260508135516 65 90 0.0 1.0 0.00 0.01 0.00 83 1018.5
20260508135018 64 113 1.0 5.0 0.00 0.01 0.00 82 1018.4
20260508134516 64 90 1.0 6.0 0.00 0.01 0.00 83 1018.4
20260508134016 63 90 1.0 4.0 0.00 0.01 0.00 83 1018.4
20260508133516 63 113 0.0 3.0 0.00 0.01 0.00 85 1018.4
20260508133039 63 90 1.0 5.0 0.00 0.01 0.00 83 1018.4
20260508132516 62 0 0.0 1.0 0.00 0.01 0.00 85 1018.4
20260508132016 62 315 0.0 2.0 0.00 0.01 0.00 84 1018.3
20260508131516 62 113 1.0 3.0 0.00 0.01 0.00 83 1018.1
20260508131016 62 338 1.0 3.0 0.00 0.01 0.00 83 1018.1
20260508130537 62 0 0.0 2.0 0.00 0.01 0.00 83 1018.2
20260508130016 62 338 0.0 3.0 0.00 0.01 0.00 85 1018.2
20260508125516 62 136 0.0 0.0 0.00 0.01 0.00 86 1018.3
20260508125016 61 315 0.0 5.0 0.00 0.01 0.00 84 1018.1
20260508124516 61 338 1.0 5.0 0.00 0.01 0.00 84 1018.2
20260508124016 61 113 0.0 4.0 0.00 0.01 0.00 86 1018.2
20260508123516 61 135 0.0 1.0 0.00 0.01 0.00 87 1018.1
20260508123036 60 270 0.0 2.0 0.00 0.01 0.00 90 1018.1
20260508122516 60 293 0.0 1.0 0.00 0.01 0.00 90 1018.2
20260508122016 59 338 0.0 3.0 0.00 0.01 0.00 92 1018.1
20260508121516 59 248 0.0 1.0 0.00 0.01 0.00 94 1017.9